Rundle Island Observation History
Time Wind Speed Temp Pressure Rel. Hum Rain
14/10:30am SSW 9-11 kts 22.0°c 1015.2 hPa n/a n/a
14/10:00am S 10-13 kts 20.5°c 1015.4 hPa n/a n/a
14/09:30am S 10-12 kts 20.4°c 1015.5 hPa n/a n/a
14/09:00am S 10-12 kts 19.8°c 1015.5 hPa n/a n/a
14/08:30am SSW 12-15 kts 19.3°c 1015.4 hPa n/a n/a
14/08:00am SSW 14-18 kts 19.4°c 1015.1 hPa n/a n/a
14/07:30am SSW 13-16 kts 19.3°c 1014.7 hPa n/a n/a
14/07:00am S 11-12 kts 19.2°c 1014.2 hPa n/a n/a
14/06:30am SSW 13-16 kts 19.3°c 1014.0 hPa n/a n/a
14/06:00am SSW 14-17 kts 19.3°c 1013.5 hPa n/a n/a
14/05:30am SSW 15-17 kts 19.6°c 1012.9 hPa n/a n/a
14/05:00am S 12-15 kts 19.7°c 1012.7 hPa n/a n/a
14/04:30am S 12-14 kts 19.9°c 1012.6 hPa n/a n/a
14/04:00am SSW 11-14 kts 20.0°c 1012.5 hPa n/a n/a
14/03:30am S 13-15 kts 21.0°c 1012.3 hPa n/a n/a
14/03:00am S 15-16 kts 21.2°c 1012.0 hPa n/a n/a
14/02:30am SSW 16-17 kts 21.7°c 1011.8 hPa n/a n/a
14/02:00am SSW 13-14 kts 21.8°c 1012.0 hPa n/a n/a
14/01:30am SSW 11-12 kts 21.9°c 1012.0 hPa n/a n/a
14/01:00am S 10-12 kts 22.6°c 1012.2 hPa n/a n/a
14/12:30am S 12-14 kts 23.1°c 1012.4 hPa n/a n/a
14/12:00am S 11-14 kts 22.8°c 1012.8 hPa n/a n/a
Time Wind Speed Temp Pressure Rel. Hum Rain
13/11:30pm S 9-11 kts 22.5°c 1012.7 hPa n/a n/a
13/11:00pm SSW 6-7 kts 22.4°c 1012.9 hPa n/a n/a
13/10:30pm SW 3-4 kts 22.2°c 1013.0 hPa n/a n/a
13/10:00pm SSW 1-2 kts 22.3°c 1012.9 hPa n/a n/a
13/09:30pm SSW 2-3 kts 22.3°c 1012.8 hPa n/a n/a
13/09:00pm SW 4-5 kts 22.7°c 1012.6 hPa n/a n/a
13/08:30pm SW 3 kts 22.9°c 1012.5 hPa n/a n/a
13/08:00pm SW 2-3 kts 23.0°c 1012.2 hPa n/a n/a
13/07:30pm SW 3 kts 23.2°c 1012.0 hPa n/a n/a
13/07:00pm N 2-3 kts 23.5°c 1011.8 hPa n/a n/a
13/06:30pm N 3-4 kts 23.6°c 1011.5 hPa n/a n/a
13/06:00pm N 6-7 kts 23.7°c 1011.0 hPa n/a n/a
13/05:30pm N 8-9 kts 23.8°c 1010.7 hPa n/a n/a
13/05:00pm NNE 8-9 kts 24.0°c 1010.5 hPa n/a n/a
13/04:30pm NNE 8-9 kts 24.1°c 1010.4 hPa n/a n/a
13/04:00pm NNE 7-8 kts 23.7°c 1010.3 hPa n/a n/a
13/03:30pm NE 8 kts 23.5°c 1010.3 hPa n/a n/a
13/03:00pm NE 8-9 kts 23.1°c 1010.3 hPa n/a n/a
13/02:30pm ENE 8-9 kts 23.2°c 1010.5 hPa n/a n/a
13/02:00pm ENE 8-9 kts 23.1°c 1011.0 hPa n/a n/a
13/01:30pm ENE 8-9 kts 23.0°c 1011.3 hPa n/a n/a
13/01:00pm E 7-8 kts 22.8°c 1011.8 hPa n/a n/a
13/12:30pm E 7-8 kts 22.7°c 1012.2 hPa n/a n/a
13/12:00pm ESE 8-9 kts 23.2°c 1012.7 hPa n/a n/a
13/11:30am SE 8-10 kts 22.8°c 1013.1 hPa n/a n/a
13/11:00am SE 8-10 kts 22.7°c 1013.5 hPa n/a n/a
13/10:30am SE 9 kts 22.9°c 1013.8 hPa n/a n/a
13/10:00am SE 9-11 kts 22.8°c 1014.1 hPa n/a n/a
13/09:30am SE 10-11 kts 22.6°c 1014.1 hPa n/a n/a
13/09:00am SE 10-12 kts 22.7°c 1013.9 hPa n/a n/a
13/08:30am SE 11-13 kts 22.4°c 1013.5 hPa n/a n/a
13/08:00am SSE 12-15 kts 22.3°c 1013.5 hPa n/a n/a
13/07:30am SE 12-14 kts 22.5°c 1013.4 hPa n/a n/a
13/07:00am SE 10-12 kts 22.8°c 1013.1 hPa n/a n/a
13/06:30am SSE 10-11 kts 22.9°c 1012.9 hPa n/a n/a
13/06:00am SSE 9-10 kts 22.9°c 1012.5 hPa n/a n/a
13/05:30am SSE 7-8 kts 22.9°c 1012.3 hPa n/a n/a
13/05:00am S 6-7 kts 22.9°c 1012.1 hPa n/a n/a
13/04:30am S 7-8 kts 22.9°c 1012.1 hPa n/a n/a
13/04:00am S 9-10 kts 22.9°c 1011.9 hPa n/a n/a
13/03:30am S 8-9 kts 22.9°c 1011.8 hPa n/a n/a
13/03:00am SSW 7-8 kts 22.8°c 1012.0 hPa n/a n/a
13/02:30am SSW 9-10 kts 22.8°c 1012.2 hPa n/a n/a
13/02:00am SSW 9-10 kts 22.8°c 1012.4 hPa n/a n/a
13/01:30am SSW 7-8 kts 22.9°c 1012.8 hPa n/a n/a
13/01:00am ENE 7-8 kts 23.2°c 1013.1 hPa n/a n/a
13/12:30am ENE 2-3 kts 23.6°c 1013.1 hPa n/a n/a
13/12:00am ENE 2 kts 23.6°c 1013.3 hPa n/a n/a
Time Wind Speed Temp Pressure Rel. Hum Rain
12/11:30pm ENE 2 kts 23.6°c 1013.3 hPa n/a n/a
12/11:00pm ENE 2 kts 23.7°c 1013.4 hPa n/a n/a
12/10:30pm ENE 3-5 kts 23.8°c 1013.5 hPa n/a n/a
12/10:00pm ENE 4-5 kts 23.8°c 1013.6 hPa n/a n/a
12/09:30pm ENE 3-4 kts 23.9°c 1013.5 hPa n/a n/a
12/09:00pm ENE 4 kts 23.9°c 1013.7 hPa n/a n/a
12/08:30pm E 7-8 kts 23.9°c 1013.8 hPa n/a n/a
12/08:00pm E 8-9 kts 23.9°c 1013.6 hPa n/a n/a
12/07:30pm E 9-10 kts 23.9°c 1013.4 hPa n/a n/a
12/07:00pm E 9-10 kts 23.7°c 1013.2 hPa n/a n/a
12/06:30pm E 9-10 kts 23.7°c 1013.0 hPa n/a n/a
12/06:00pm E 7-9 kts 23.8°c 1013.1 hPa n/a n/a
12/05:30pm E 7-8 kts 23.9°c 1013.1 hPa n/a n/a
12/05:00pm E 5-6 kts 23.9°c 1012.9 hPa n/a n/a
12/04:30pm E 5-6 kts 23.9°c 1012.8 hPa n/a n/a
12/04:00pm E 6-7 kts 23.9°c 1012.7 hPa n/a n/a
12/03:30pm ESE 7-8 kts 24.1°c 1012.8 hPa n/a n/a
12/03:00pm SE 7-8 kts 24.2°c 1012.9 hPa n/a n/a
12/02:30pm SE 8 kts 24.3°c 1013.0 hPa n/a n/a
12/02:00pm SE 8-9 kts 24.4°c 1013.1 hPa n/a n/a
12/01:30pm SSE 8-9 kts 24.5°c 1013.3 hPa n/a n/a
12/01:00pm SE 8-9 kts 24.6°c 1013.8 hPa n/a n/a
12/12:30pm SSE 9-11 kts 24.3°c 1014.0 hPa n/a n/a
12/12:00pm SSE 10-11 kts 24.1°c 1014.5 hPa n/a n/a
12/11:30am SSE 10-12 kts 23.8°c 1015.2 hPa n/a n/a
12/11:00am SE 11-12 kts 23.8°c 1015.6 hPa n/a n/a
12/10:30am SSE 12-13 kts 23.5°c 1015.9 hPa n/a n/a
12/10:00am SSE 12-13 kts 23.3°c 1016.0 hPa n/a n/a
12/09:30am SSE 12-13 kts 23.3°c 1015.9 hPa n/a n/a
12/09:00am SSE 13-15 kts 22.9°c 1015.9 hPa n/a n/a
12/08:30am SSE 13-15 kts 23.1°c 1016.0 hPa n/a n/a
12/08:00am SSE 12-13 kts 23.2°c 1015.5 hPa n/a n/a
12/07:30am SE 12-13 kts 23.1°c 1015.2 hPa n/a n/a
12/07:00am SSE 10-12 kts 23.0°c 1015.1 hPa n/a n/a
12/06:30am SSE 10 kts 23.0°c 1015.0 hPa n/a n/a
12/06:00am SSE 10-12 kts 23.0°c 1014.9 hPa n/a n/a
12/05:30am SSE 9-10 kts 23.0°c 1014.4 hPa n/a n/a
12/05:00am SE 7-8 kts 23.5°c 1014.1 hPa n/a n/a
12/04:30am SE 7-8 kts 23.6°c 1014.2 hPa n/a n/a
12/04:00am ESE 6-7 kts 23.7°c 1014.1 hPa n/a n/a
12/03:30am E 6-7 kts 23.6°c 1014.0 hPa n/a n/a
12/03:00am E 3-4 kts 23.4°c 1014.2 hPa n/a n/a
12/02:30am E 3 kts 23.4°c 1014.3 hPa n/a n/a
12/02:00am E 4 kts 23.5°c 1014.2 hPa n/a n/a
12/01:30am E 7-9 kts 23.5°c 1014.4 hPa n/a n/a
12/01:00am ENE 10-14 kts 23.6°c 1014.6 hPa n/a n/a
12/12:30am ENE 11-13 kts 23.8°c 1014.9 hPa n/a n/a
12/12:00am ENE 11-12 kts 23.6°c 1015.3 hPa n/a n/a